TimeCDT,TemperatureF,Dew PointF,Humidity,Sea Level PressureIn,VisibilityMPH,Wind Direction,Wind SpeedMPH,Gust SpeedMPH,PrecipitationIn,Events,Conditions,WindDirDegrees,DateUTC
12:53 AM,45.0,41.0,86,30.24,10.0,Calm,Calm,-,N/A,,Clear,0,2012-10-11 05:53:00
1:53 AM,46.0,42.1,86,30.23,10.0,Calm,Calm,-,N/A,,Clear,0,2012-10-11 06:53:00
2:53 AM,48.0,39.9,74,30.23,10.0,NE,3.5,-,N/A,,Clear,40,2012-10-11 07:53:00
3:53 AM,48.9,39.9,71,30.22,10.0,East,6.9,-,N/A,,Clear,80,2012-10-11 08:53:00
4:53 AM,48.0,39.0,71,30.23,10.0,Calm,Calm,-,N/A,,Clear,0,2012-10-11 09:53:00
5:53 AM,46.9,39.0,74,30.24,10.0,ENE,3.5,-,N/A,,Clear,60,2012-10-11 10:53:00
6:53 AM,46.0,39.9,79,30.26,10.0,East,3.5,-,N/A,,Mostly Cloudy,100,2012-10-11 11:53:00
7:53 AM,48.9,42.1,77,30.28,10.0,SE,3.5,-,N/A,,Mostly Cloudy,140,2012-10-11 12:53:00
8:53 AM,52.0,45.0,77,30.30,10.0,ESE,3.5,-,N/A,,Overcast,110,2012-10-11 13:53:00
9:53 AM,55.0,46.0,72,30.30,10.0,SSE,4.6,-,N/A,,Mostly Cloudy,160,2012-10-11 14:53:00
10:53 AM,59.0,46.9,64,30.32,10.0,Calm,Calm,-,N/A,,Overcast,0,2012-10-11 15:53:00
11:53 AM,63.0,48.0,58,30.29,10.0,SE,4.6,-,N/A,,Overcast,130,2012-10-11 16:53:00
12:53 PM,64.9,48.9,56,30.27,10.0,Calm,Calm,-,N/A,,Overcast,0,2012-10-11 17:53:00
1:53 PM,66.0,50.0,56,30.25,10.0,North,3.5,-,N/A,,Overcast,10,2012-10-11 18:53:00
2:53 PM,64.9,52.0,63,30.25,10.0,Calm,Calm,-,N/A,,Overcast,0,2012-10-11 19:53:00
3:53 PM,64.9,53.1,65,30.25,10.0,Calm,Calm,-,N/A,,Overcast,0,2012-10-11 20:53:00
5:53 PM,63.0,54.0,72,30.24,10.0,Calm,Calm,-,N/A,,Overcast,0,2012-10-11 22:53:00
6:06 PM,64.4,53.6,68,30.23,10.0,Calm,Calm,-,N/A,,Overcast,0,2012-10-11 23:06:00
6:53 PM,63.0,55.9,78,30.23,10.0,Calm,Calm,-,N/A,,Overcast,0,2012-10-11 23:53:00
7:53 PM,62.1,55.9,80,30.23,10.0,Calm,Calm,-,N/A,,Overcast,0,2012-10-12 00:53:00
8:35 PM,62.6,57.2,82,30.24,10.0,Calm,Calm,-,N/A,,Overcast,0,2012-10-12 01:35:00
8:53 PM,62.1,55.0,78,30.25,10.0,Calm,Calm,-,N/A,,Overcast,0,2012-10-12 01:53:00
9:48 PM,60.8,55.4,82,30.25,10.0,Calm,Calm,-,N/A,,Overcast,0,2012-10-12 02:48:00
9:53 PM,62.1,55.9,80,30.24,10.0,Calm,Calm,-,N/A,,Overcast,0,2012-10-12 02:53:00
10:53 PM,61.0,55.0,81,30.24,10.0,East,3.5,-,N/A,,Overcast,80,2012-10-12 03:53:00
11:04 PM,60.8,55.4,82,30.25,10.0,Calm,Calm,-,N/A,,Overcast,0,2012-10-12 04:04:00
11:53 PM,61.0,55.9,83,30.23,10.0,Calm,Calm,-,N/A,,Overcast,0,2012-10-12 04:53:00